IZ0DPP-3 San Gemini IT current weather conditions

sailwx.info

Wind from 050 at 0 knots gusting 2

Air temperature 17.2° C
Dewpoint 12.1° C

Last reported at 2019-Sep-16 22:10 UTC.
Time now 2019-Sep-16 22:58 UTC

Location: N 42°36' E 012°34'.
View on Google Maps.

See reports from other nearby stations

  
Tides and Currents Weather Stations Pressure Air Temp Water Temp Dewpoint Dewpoint Depression Visibility Wind Speed Wind Dir Waves Ship Positions
date/time (UTC)wind fromknots sea level pressurealtimeterstation pressurevisibilityair tempwater tempwave heightnotes
2019-Sep-16 22:10 050 0 gusting 2 17.2
2019-Sep-16 22:05 060 1 gusting 2 17.2
2019-Sep-16 21:55 312 17.8
2019-Sep-16 21:52 215 1 gusting 1 17.8
2019-Sep-16 21:49 239 0 gusting 1 17.8
2019-Sep-16 21:43 309 0 gusting 1 17.8
2019-Sep-16 21:38 356 0 gusting 1 17.8
2019-Sep-16 21:33 17.8
2019-Sep-16 21:27 060 18.3
2019-Sep-16 21:22 041 2 gusting 3 18.3
2019-Sep-16 21:17 003 1 gusting 4 18.3
2019-Sep-16 21:12 18.3
2019-Sep-16 21:07 061 2 gusting 4 18.3
2019-Sep-16 21:04 085 3 gusting 4 18.3
2019-Sep-16 20:59 054 2 gusting 4 18.3
2019-Sep-16 20:53 065 2 gusting 2 18.3
2019-Sep-16 20:48 046 2 gusting 2 18.3
2019-Sep-16 20:43 032 1 gusting 2 18.3
2019-Sep-16 20:38 026 0 gusting 2 18.9
2019-Sep-16 20:33 048 18.9
2019-Sep-16 20:28 037 1 gusting 3 18.9
2019-Sep-16 20:22 359 2 gusting 2 18.9
2019-Sep-16 20:19 350 1 gusting 2 18.9
2019-Sep-16 20:11 048 19.4
2019-Sep-16 20:06 037 1 gusting 3 20.0
2019-Sep-16 20:01 051 2 gusting 3 20.0
2019-Sep-16 19:57 074 2 gusting 4 20.0
2019-Sep-16 19:52 059 1 gusting 5 20.0
2019-Sep-16 19:45 046 2 gusting 5 20.6
2019-Sep-16 19:43 032 3 gusting 6 20.6
2019-Sep-16 19:35 087 2 gusting 5 20.6
2019-Sep-16 19:34 100 3 gusting 5 20.6
2019-Sep-16 19:25 107 0 gusting 3 20.6
2019-Sep-16 19:22 20.6
2019-Sep-16 19:16 018 1 gusting 5 20.6
2019-Sep-16 19:12 032 2 gusting 5 21.1
2019-Sep-16 19:07 060 3 gusting 3 21.1
2019-Sep-16 19:02 045 0 gusting 3 21.1
2019-Sep-16 18:58 030 3 gusting 3 21.1
2019-Sep-16 18:52 037 0 gusting 3 21.7
2019-Sep-16 18:49 054 1 gusting 3 21.7
2019-Sep-16 18:42 314 0 gusting 3 22.2
2019-Sep-16 18:32 22.8
2019-Sep-16 18:22 013 1 gusting 2 22.8
2019-Sep-16 18:13 050 1 gusting 4 23.3
2019-Sep-16 18:04 081 3 gusting 4 23.3
2019-Sep-16 17:59 23.9
2019-Sep-16 17:52 24.4
2019-Sep-16 17:49 181 1 gusting 2 24.4
2019-Sep-16 17:42 25.0
2019-Sep-16 17:39 25.6
2019-Sep-16 17:32 25.6
2019-Sep-16 17:29 26.1
2019-Sep-16 17:22 280 26.7
2019-Sep-16 17:19 273 0 gusting 2 26.7
2019-Sep-16 17:12 297 1 gusting 3 26.7
2019-Sep-16 17:09 302 27.2
2019-Sep-16 17:02 27.8
2019-Sep-16 16:59 27.8
2019-Sep-16 16:52 28.3
2019-Sep-16 16:49 28.9
2019-Sep-16 16:43 301 1 gusting 3 30.0
2019-Sep-16 16:39 305 0 gusting 3 30.0
2019-Sep-16 16:34 286 1 gusting 3 30.6
2019-Sep-16 16:29 278 2 gusting 4 30.6
2019-Sep-16 16:22 270 1 gusting 4 31.7
2019-Sep-16 16:19 256 2 gusting 5 31.7
2019-Sep-16 16:12 199 32.2
2019-Sep-16 16:09 194 1 gusting 2 32.8
2019-Sep-16 15:59 33.3
2019-Sep-16 15:51 237 1 gusting 2 33.3
2019-Sep-16 15:49 246 1 gusting 3 33.3
2019-Sep-16 15:41 197 1 gusting 3 33.3
2019-Sep-16 15:36 147 2 gusting 3 34.4
2019-Sep-16 15:31 186 0 gusting 3 35.0
2019-Sep-16 15:26 196 35.0
2019-Sep-16 15:22 35.0
2019-Sep-16 15:16 35.6
2019-Sep-16 15:13 35.6
2019-Sep-16 15:06 35.6
2019-Sep-16 15:04 35.0
2019-Sep-16 14:56 166 34.4
2019-Sep-16 14:51 168 1 gusting 3 34.4
2019-Sep-16 14:46 204 1 gusting 3 34.4
2019-Sep-16 14:41 208 33.9
2019-Sep-16 14:37 33.9
2019-Sep-16 14:31 156 1 gusting 2 33.9
2019-Sep-16 14:28 158 1 gusting 3 33.9
2019-Sep-16 14:19 114 0 gusting 6 33.3
2019-Sep-16 14:14 156 4 gusting 6 33.9
2019-Sep-16 14:09 175 34.4
2019-Sep-16 14:04 182 35.0
2019-Sep-16 13:59 177 1 gusting 5 35.0
2019-Sep-16 13:54 182 2 gusting 5 34.4
2019-Sep-16 13:49 169 2 gusting 5 35.0
2019-Sep-16 13:44 111 35.0
2019-Sep-16 13:39 34.4
2019-Sep-16 13:34 155 0 gusting 3 33.9
2019-Sep-16 13:29 193 0 gusting 5 33.9
2019-Sep-16 13:24 231 2 gusting 5 33.9
2019-Sep-16 13:19 213 3 gusting 5 35.0
2019-Sep-16 13:14 34.4
2019-Sep-16 13:09 34.4
2019-Sep-16 13:04 188 0 gusting 2 34.4
2019-Sep-16 12:58 33.9
2019-Sep-16 12:51 183 32.8
2019-Sep-16 12:49 32.2
2019-Sep-16 12:41 154 0 gusting 1 32.2
2019-Sep-16 12:37 32.8
2019-Sep-16 12:32 195 32.8
2019-Sep-16 12:26 32.8
2019-Sep-16 12:22 259 1 gusting 4 32.8
2019-Sep-16 12:17 298 1 gusting 5 31.7
2019-Sep-16 12:13 294 1 gusting 6 31.7
2019-Sep-16 12:07 33.3
2019-Sep-16 12:04 164 1 gusting 3 32.8
2019-Sep-16 11:57 182 1 gusting 3 32.8
2019-Sep-16 11:52 178 0 gusting 3 32.8
2019-Sep-16 11:46 199 31.7
2019-Sep-16 11:41 278 2 gusting 7 31.1
2019-Sep-16 11:37 277 1 gusting 7 30.6
2019-Sep-16 11:31 261 5 gusting 7 30.6
2019-Sep-16 11:28 244 0 gusting 5 31.1
2019-Sep-16 11:21 31.7
2019-Sep-16 11:19 165 1 gusting 3 31.7
2019-Sep-16 11:12 202 32.2
2019-Sep-16 11:06 190 31.7
2019-Sep-16 11:02 194 31.7
2019-Sep-16 10:56 201 2 gusting 3 32.2
2019-Sep-16 10:52 32.2
2019-Sep-16 10:46 175 31.7
2019-Sep-16 10:43 153 0 gusting 2 31.7
2019-Sep-16 10:36 227 1 gusting 2 30.6
2019-Sep-16 10:34 242 1 gusting 2 30.6
2019-Sep-16 10:26 197 0 gusting 2 31.1
2019-Sep-16 10:21 194 0 gusting 2 30.6
2019-Sep-16 10:16 168 30.6
2019-Sep-16 10:11 159 0 gusting 2 30.6
2019-Sep-16 10:07 179 0 gusting 1 30.6
2019-Sep-16 10:01 126 29.4
2019-Sep-16 09:58 29.4
2019-Sep-16 09:51 240 1 gusting 2 28.9
2019-Sep-16 09:49 28.9
2019-Sep-16 09:41 167 0 gusting 1 29.4
2019-Sep-16 09:36 29.4
2019-Sep-16 09:31 28.3
2019-Sep-16 09:26 28.3
2019-Sep-16 09:22 203 1 gusting 3 27.8
2019-Sep-16 09:16 176 27.8
2019-Sep-16 09:13 166 1 gusting 2 27.8
2019-Sep-16 09:06 154 27.2
2019-Sep-16 09:04 27.2
2019-Sep-16 08:56 166 26.7
2019-Sep-16 08:51 26.7
2019-Sep-16 08:46 26.7
2019-Sep-16 08:41 164 26.1
2019-Sep-16 08:37 186 0 gusting 1 25.6
2019-Sep-16 08:31 25.0
2019-Sep-16 08:28 193 0 gusting 1 25.0
2019-Sep-16 08:21 182 25.0
2019-Sep-16 08:19 177 0 gusting 1 24.4
2019-Sep-16 08:11 24.4
2019-Sep-16 08:06 24.4
2019-Sep-16 08:01 24.4
2019-Sep-16 07:56 185 24.4
2019-Sep-16 07:52 178 0 gusting 3 24.4
2019-Sep-16 07:46 202 1 gusting 2 25.0
2019-Sep-16 07:43 227 1 gusting 1 25.0
2019-Sep-16 07:36 204 23.9
2019-Sep-16 07:34 23.3
2019-Sep-16 07:26 195 22.2
2019-Sep-16 07:20 21.7
2019-Sep-16 07:16 21.7
2019-Sep-16 07:07 21.1
2019-Sep-16 07:00 21.7
2019-Sep-16 06:58 21.7
2019-Sep-16 06:50 22.2
2019-Sep-16 06:49 22.2
2019-Sep-16 06:40 22.2
2019-Sep-16 06:36 21.7
2019-Sep-16 06:31 21.1
2019-Sep-16 06:26 20.6
2019-Sep-16 06:22 20.6
2019-Sep-16 06:16 20.0
2019-Sep-16 06:13 18.9
2019-Sep-16 06:06 181 17.8
2019-Sep-16 06:04 181 0 gusting 1 17.8
2019-Sep-16 05:56 119 17.2
2019-Sep-16 05:46 16.1
2019-Sep-16 05:39 15.6
2019-Sep-16 05:34 15.6
2019-Sep-16 05:29 15.6
2019-Sep-16 05:24 15.0
2019-Sep-16 05:19 15.0
2019-Sep-16 05:14 225 15.0
2019-Sep-16 05:09 15.0
2019-Sep-16 05:04 15.0
2019-Sep-16 04:59 215 14.4
2019-Sep-16 04:54 14.4
2019-Sep-16 04:49 14.4
2019-Sep-16 04:44 012 1 gusting 2 14.4
2019-Sep-16 04:39 14.4
2019-Sep-16 04:34 14.4
2019-Sep-16 04:29 14.4
2019-Sep-16 04:24 170 14.4
2019-Sep-16 04:19 14.4
2019-Sep-16 04:14 072 0 gusting 2 14.4
2019-Sep-16 04:09 117 14.4
2019-Sep-16 04:04 140 14.4
2019-Sep-16 03:59 14.4
2019-Sep-16 03:54 191 14.4
2019-Sep-16 03:49 15.0
2019-Sep-16 03:44 018 15.0
2019-Sep-16 03:39 15.0
2019-Sep-16 03:34 15.0
2019-Sep-16 03:29 15.0
2019-Sep-16 03:24 088 0 gusting 2 15.0
2019-Sep-16 03:19 15.0
2019-Sep-16 03:14 15.0
2019-Sep-16 03:09 15.0
2019-Sep-16 03:04 15.0
2019-Sep-16 02:59 022 15.0
2019-Sep-16 02:54 15.0
2019-Sep-16 02:49 15.6
2019-Sep-16 02:44 15.6
2019-Sep-16 02:39 15.6
2019-Sep-16 02:34 15.6
2019-Sep-16 02:29 051 1 gusting 2 15.6
2019-Sep-16 02:24 249 15.6
2019-Sep-16 02:19 037 1 gusting 2 15.6
2019-Sep-16 02:14 045 0 gusting 2 15.6
2019-Sep-16 02:09 041 0 gusting 2 15.6
2019-Sep-16 02:04 355 15.6
2019-Sep-16 01:59 15.6
2019-Sep-16 01:54 15.6
2019-Sep-16 01:49 15.6
2019-Sep-16 01:44 15.6
2019-Sep-16 01:39 15.6
2019-Sep-16 01:34 16.1
2019-Sep-16 01:29 115 0 gusting 2 16.1
2019-Sep-16 01:24 077 0 gusting 1 16.1
2019-Sep-16 01:19 026 0 gusting 2 16.1
2019-Sep-16 01:14 015 0 gusting 2 16.1
2019-Sep-16 01:09 16.1
2019-Sep-16 01:04 084 16.1
2019-Sep-16 00:59 048 16.1
2019-Sep-16 00:54 052 16.1
2019-Sep-16 00:49 16.7
2019-Sep-16 00:44 075 1 gusting 2 16.1
2019-Sep-16 00:39 135 1 gusting 2 16.1
2019-Sep-16 00:34 331 16.1
2019-Sep-16 00:29 16.7
2019-Sep-16 00:24 16.7
2019-Sep-16 00:19 021 16.7
2019-Sep-16 00:14 026 1 gusting 2 16.7
2019-Sep-16 00:09 076 16.7
2019-Sep-16 00:04 070 1 gusting 4 16.7
2019-Sep-15 23:59 052 16.7
2019-Sep-15 23:54 029 2 gusting 3 16.7
2019-Sep-15 23:49 044 1 gusting 3 16.7
2019-Sep-15 23:44 152 0 gusting 1 16.7
2019-Sep-15 23:39 16.7
2019-Sep-15 23:34 16.7
2019-Sep-15 23:29 16.7
2019-Sep-15 23:24 174 16.7
2019-Sep-15 23:19 118 1 gusting 2 16.7
2019-Sep-15 23:14 070 0 gusting 2 16.7
2019-Sep-15 23:09 060 0 gusting 2 16.7
2019-Sep-15 23:04 027 1 gusting 2 16.7
2019-Sep-15 22:56 16.7
2019-Sep-15 22:52 16.7
2019-Sep-15 22:47 035 0 gusting 2 16.7
2019-Sep-15 22:43 038 0 gusting 2 16.7
2019-Sep-15 22:37 034 16.7
2019-Sep-15 22:34 16.7
2019-Sep-15 22:27 051 17.2
2019-Sep-15 22:22 17.2
2019-Sep-15 22:17 17.2
2019-Sep-15 22:12 17.2
2019-Sep-15 22:07 17.8
2019-Sep-15 22:02 17.8
2019-Sep-15 21:58 17.8
2019-Sep-15 21:52 040 1 gusting 2 17.8
2019-Sep-15 21:49 042 0 gusting 3 17.8
2019-Sep-15 21:42 069 1 gusting 2 17.8
2019-Sep-15 21:37 17.8
2019-Sep-15 21:32 084 1 gusting 2 18.3
2019-Sep-15 21:27 121 1 gusting 2 18.3
2019-Sep-15 21:22 041 1 gusting 3 18.3
2019-Sep-15 21:17 054 1 gusting 3 18.3
2019-Sep-15 21:13 058 1 gusting 3 18.3
2019-Sep-15 21:07 049 2 gusting 3 18.3
2019-Sep-15 21:04 055 1 gusting 2 17.8
2019-Sep-15 20:57 014 18.3
2019-Sep-15 20:52 18.3
2019-Sep-15 20:47 001 18.3
2019-Sep-15 20:42 118 18.3
2019-Sep-15 20:37 18.3
2019-Sep-15 20:32 004 0 gusting 0 18.9
2019-Sep-15 20:28 003 0 gusting 1 18.9
2019-Sep-15 20:22 001 19.4
2019-Sep-15 20:19 19.4
2019-Sep-15 20:12 196 19.4
2019-Sep-15 20:05 20.0
2019-Sep-15 20:02 045 0 gusting 3 20.0
2019-Sep-15 19:55 096 2 gusting 4 20.0
2019-Sep-15 19:52 051 3 gusting 4 20.0
2019-Sep-15 19:45 024 2 gusting 4 20.6
2019-Sep-15 19:43 056 3 gusting 4 20.6
2019-Sep-15 19:35 066 2 gusting 5 20.6
2019-Sep-15 19:34 070 2 gusting 5 20.6
2019-Sep-15 19:25 133 4 gusting 6 20.6
2019-Sep-15 19:22 156 2 gusting 5 20.6
2019-Sep-15 19:16 113 3 gusting 4 20.6
2019-Sep-15 19:07 022 3 gusting 4 20.6
2019-Sep-15 19:02 038 3 gusting 4 20.6
2019-Sep-15 18:58 045 1 gusting 3 20.6
2019-Sep-15 18:52 347 20.6
2019-Sep-15 18:49 20.6
2019-Sep-15 18:42 027 0 gusting 2 20.6
2019-Sep-15 18:32 033 1 gusting 2 21.1
2019-Sep-15 18:22 21.7
2019-Sep-15 18:13 22.2
2019-Sep-15 18:04 22.2
2019-Sep-15 17:59 22.8
2019-Sep-15 17:52 23.3
2019-Sep-15 17:49 23.3
2019-Sep-15 17:42 23.9
2019-Sep-15 17:39 127 1 gusting 2 23.9
2019-Sep-15 17:32 24.4
2019-Sep-15 17:29 24.4
2019-Sep-15 17:22 25.0
2019-Sep-15 17:19 25.0
2019-Sep-15 17:12 084 2 gusting 3 25.0
2019-Sep-15 17:09 090 2 gusting 3 25.6
2019-Sep-15 17:02 034 2 gusting 3 25.6
2019-Sep-15 16:59 014 2 gusting 2 25.6
2019-Sep-15 16:52 138 1 gusting 2 26.1
2019-Sep-15 16:49 071 26.7
2019-Sep-15 16:43 118 1 gusting 2 26.7
2019-Sep-15 16:39 178 0 gusting 1 26.7
2019-Sep-15 16:34 185 0 gusting 1 27.2
2019-Sep-15 16:29 214 27.8
2019-Sep-15 16:22 28.3
2019-Sep-15 16:19 28.3
2019-Sep-15 16:12 28.9
2019-Sep-15 16:09 28.9
2019-Sep-15 15:59 30.0
2019-Sep-15 15:50 30.6
2019-Sep-15 15:49 30.6
2019-Sep-15 15:40 31.1
2019-Sep-15 15:36 31.7
2019-Sep-15 15:31 31.7
2019-Sep-15 15:26 32.2
2019-Sep-15 15:22 32.2
2019-Sep-15 15:16 186 32.2
2019-Sep-15 15:13 32.8
2019-Sep-15 15:06 233 0 gusting 3 33.3
2019-Sep-15 15:04 33.3
2019-Sep-15 14:56 169 1 gusting 2 35.0
2019-Sep-15 14:50 181 35.0
2019-Sep-15 14:46 232 0 gusting 2 35.0
2019-Sep-15 14:40 247 34.4
2019-Sep-15 14:37 262 1 gusting 2 34.4
2019-Sep-15 14:30 32.2
2019-Sep-15 14:28 32.2
2019-Sep-15 14:20 31.7
2019-Sep-15 14:19 31.7
2019-Sep-15 14:10 32.2
2019-Sep-15 14:06 32.8
2019-Sep-15 14:01 32.2
2019-Sep-15 13:59 32.2
2019-Sep-15 13:54 030 32.2
2019-Sep-15 13:49 327 0 gusting 1 32.8
2019-Sep-15 13:44 33.3
2019-Sep-15 13:39 175 32.8
2019-Sep-15 13:34 32.8
2019-Sep-15 13:29 194 32.2
2019-Sep-15 13:24 32.8
2019-Sep-15 13:19 32.2
2019-Sep-15 13:14 203 1 gusting 2 32.2
2019-Sep-15 13:09 32.8
2019-Sep-15 13:04 32.8
2019-Sep-15 12:58 32.8
2019-Sep-15 12:49 204 1 gusting 3 32.2
2019-Sep-15 12:44 178 0 gusting 2 32.8
2019-Sep-15 12:39 162 0 gusting 2 32.8
2019-Sep-15 12:34 164 0 gusting 2 32.8
2019-Sep-15 12:29 208 1 gusting 2 32.2
2019-Sep-15 12:24 31.7
2019-Sep-15 12:19 242 31.1
2019-Sep-15 12:14 236 2 gusting 6 31.1
2019-Sep-15 12:09 196 2 gusting 5 31.7
2019-Sep-15 12:04 177 1 gusting 5 31.7
2019-Sep-15 11:59 214 0 gusting 3 31.7
2019-Sep-15 11:54 236 2 gusting 3 31.7
2019-Sep-15 11:49 208 0 gusting 4 31.1
2019-Sep-15 11:44 193 2 gusting 4 31.1
2019-Sep-15 11:39 168 1 gusting 2 31.7
2019-Sep-15 11:34 241 0 gusting 2 31.1
2019-Sep-15 11:29 255 0 gusting 2 31.1
2019-Sep-15 11:24 202 0 gusting 2 32.2
2019-Sep-15 11:19 175 0 gusting 3 31.7
2019-Sep-15 11:14 171 0 gusting 2 31.7
2019-Sep-15 11:09 181 0 gusting 2 31.7
2019-Sep-15 11:04 190 1 gusting 2 31.7
2019-Sep-15 10:59 191 31.7
2019-Sep-15 10:54 31.1
2019-Sep-15 10:49 178 0 gusting 4 30.6
2019-Sep-15 10:44 178 0 gusting 4 30.6
2019-Sep-15 10:39 30.6
2019-Sep-15 10:34 173 1 gusting 3 30.6
2019-Sep-15 10:29 195 0 gusting 3 30.0
2019-Sep-15 10:24 255 1 gusting 3 30.0
2019-Sep-15 10:19 167 0 gusting 2 30.6
2019-Sep-15 10:14 146 0 gusting 2 30.0
2019-Sep-15 10:09 30.6
2019-Sep-15 10:04 189 30.0
2019-Sep-15 09:59 30.0
2019-Sep-15 09:54 165 1 gusting 2 29.4
2019-Sep-15 09:49 181 0 gusting 3 29.4
2019-Sep-15 09:44 191 28.9
2019-Sep-15 09:39 173 0 gusting 2 28.9
2019-Sep-15 09:34 177 0 gusting 2 28.3
2019-Sep-15 09:29 175 2 gusting 2 28.3
2019-Sep-15 09:24 28.3
2019-Sep-15 09:19 27.8
2019-Sep-15 09:14 259 1 gusting 2 27.2
2019-Sep-15 09:09 28.3
2019-Sep-15 09:04 27.8
2019-Sep-15 08:59 27.8
2019-Sep-15 08:54 27.2
2019-Sep-15 08:49 178 0 gusting 1 27.2
2019-Sep-15 08:44 171 27.2
2019-Sep-15 08:39 166 0 gusting 1 26.7
2019-Sep-15 08:34 160 0 gusting 2 26.7
2019-Sep-15 08:29 165 26.1
2019-Sep-15 08:24 178 0 gusting 2 26.7
2019-Sep-15 08:19 244 0 gusting 1 26.7
2019-Sep-15 08:14 232 26.7
2019-Sep-15 08:09 155 26.1
2019-Sep-15 08:04 26.1
2019-Sep-15 07:59 184 25.0
2019-Sep-15 07:54 223 24.4
2019-Sep-15 07:49 232 24.4
2019-Sep-15 07:44 205 0 gusting 1 24.4
2019-Sep-15 07:39 192 24.4
2019-Sep-15 07:34 195 0 gusting 1 24.4
2019-Sep-15 07:25 199 23.9
2019-Sep-15 07:20 23.3
2019-Sep-15 07:16 200 0 gusting 1 23.3
2019-Sep-15 07:10 188 22.8
2019-Sep-15 07:07 22.8
2019-Sep-15 07:00 22.8
2019-Sep-15 06:58 22.8
2019-Sep-15 06:50 21.7
2019-Sep-15 06:49 21.7
2019-Sep-15 06:40 20.6
2019-Sep-15 06:35 202 20.6
2019-Sep-15 06:31 20.6
2019-Sep-15 06:26 19.4
2019-Sep-15 06:22 19.4
2019-Sep-15 06:15 113 1 gusting 2 19.4
2019-Sep-15 06:13 18.9
2019-Sep-15 06:06 269 0 gusting 2 18.3
2019-Sep-15 06:04 287 1 gusting 2 18.3
2019-Sep-15 05:55 17.2
2019-Sep-15 05:46 16.1
2019-Sep-15 05:39 15.0
2019-Sep-15 05:34 14.4
2019-Sep-15 05:29 13.9
2019-Sep-15 05:24 13.9
2019-Sep-15 05:19 13.9
2019-Sep-15 05:14 225 13.9
2019-Sep-15 05:09 13.9
2019-Sep-15 05:04 13.9
2019-Sep-15 04:59 182 1 gusting 2 13.3
2019-Sep-15 04:54 218 0 gusting 1 13.3
2019-Sep-15 04:49 13.3
2019-Sep-15 04:44 160 0 gusting 1 12.8
2019-Sep-15 04:39 12.8
2019-Sep-15 04:34 001 1 gusting 1 12.8
2019-Sep-15 04:29 344 0 gusting 1 12.8
2019-Sep-15 04:24 13.3
2019-Sep-15 04:19 192 13.3
2019-Sep-15 04:14 001 13.3
2019-Sep-15 04:09 001 13.3
2019-Sep-15 04:04 13.3
2019-Sep-15 03:59 13.9
2019-Sep-15 03:54 13.9
2019-Sep-15 03:49 13.9
2019-Sep-15 03:44 069 0 gusting 2 13.9
2019-Sep-15 03:39 057 0 gusting 2 13.9
2019-Sep-15 03:34 13.9
2019-Sep-15 03:29 023 2 gusting 3 13.9
2019-Sep-15 03:24 350 13.9
2019-Sep-15 03:19 330 0 gusting 1 13.9
2019-Sep-15 03:14 259 0 gusting 0 13.9
2019-Sep-15 03:09 212 13.9
2019-Sep-15 03:04 13.9
2019-Sep-15 02:59 14.4
2019-Sep-15 02:54 138 0 gusting 2 14.4
2019-Sep-15 02:49 14.4
2019-Sep-15 02:44 14.4
2019-Sep-15 02:39 047 0 gusting 2 14.4
2019-Sep-15 02:34 040 14.4
2019-Sep-15 02:29 14.4
2019-Sep-15 02:24 15.0
2019-Sep-15 02:19 055 1 gusting 1 15.0
2019-Sep-15 02:14 173 15.0
2019-Sep-15 02:09 15.0
2019-Sep-15 02:04 056 2 gusting 4 15.0
2019-Sep-15 01:59 049 15.0
2019-Sep-15 01:54 15.0
2019-Sep-15 01:49 15.6
2019-Sep-15 01:44 15.6
2019-Sep-15 01:39 15.6
2019-Sep-15 01:34 129 2 gusting 3 15.6
2019-Sep-15 01:29 057 2 gusting 5 16.1
2019-Sep-15 01:24 079 2 gusting 5 16.1
2019-Sep-15 01:19 072 4 gusting 5 15.6
2019-Sep-15 01:14 053 2 gusting 4 16.1
2019-Sep-15 01:09 049 2 gusting 4 16.1
2019-Sep-15 01:04 056 1 gusting 5 16.1
2019-Sep-15 00:59 16.1
2019-Sep-15 00:54 032 2 gusting 5 15.6
2019-Sep-15 00:49 16.1
2019-Sep-15 00:44 16.1
2019-Sep-15 00:39 16.1
2019-Sep-15 00:34 068 1 gusting 4 16.1
2019-Sep-15 00:29 073 2 gusting 4 16.1
2019-Sep-15 00:24 098 2 gusting 3 16.1
2019-Sep-15 00:19 076 0 gusting 3 16.1
2019-Sep-15 00:14 028 1 gusting 3 15.6
2019-Sep-15 00:09 037 0 gusting 2 15.6
2019-Sep-15 00:04 15.6
2019-Sep-14 23:59 358 1 gusting 2 15.6
2019-Sep-14 23:54 16.1
2019-Sep-14 23:49 037 0 gusting 2 16.1
2019-Sep-14 23:44 16.1
2019-Sep-14 23:39 174 1 gusting 2 16.1
2019-Sep-14 23:34 16.1
2019-Sep-14 23:29 201 0 gusting 2 16.7
2019-Sep-14 23:24 057 0 gusting 2 16.7
2019-Sep-14 23:19 16.7
2019-Sep-14 23:14 333 17.2
2019-Sep-14 23:09 17.2
2019-Sep-14 23:04 17.2
2019-Sep-14 22:55 236 17.2
2019-Sep-14 22:52 320 0 gusting 3 17.2
2019-Sep-14 22:45 357 1 gusting 5 17.8
2019-Sep-14 22:43 347 3 gusting 6 17.8
2019-Sep-14 22:35 301 2 gusting 4 17.8
2019-Sep-14 22:34 319 1 gusting 4 17.8
2019-Sep-14 22:25 001 1 gusting 2 17.2
2019-Sep-14 22:22 329 17.8
2019-Sep-14 22:16 318 1 gusting 3 17.8
2019-Sep-14 22:12 332 0 gusting 2 17.8
2019-Sep-14 22:07 131 1 gusting 2 17.8
2019-Sep-14 22:02 17.8